Find DMSP F-10

NORAD ID: 20978 Int'l Des: 1990-105 Owner: AFSSD2 Country: US operational
LEOCIRCULARRETROGRADESSO

实时位置

正在加载3D地球...

关于 DMSP F-10

正在加载描述...

即将过境

Passes for default location (London). Set your location on the main map for personalized predictions.

高度历史

Loading altitude history...

两行轨道根数

1 20978U 90105A 26106.92191104 .00000187 00000-0 71404-4 0 9999
2 20978 98.6143 166.5214 0072233 107.5792 253.3303 14.40126945853698
Epoch: Apr 16, 2026 • Age: 14 hours

当前状态

高度 779.5 km
速度 7.46 km/s
星下点 -28.26°S, 49.52°W
发射日期 Dec 1, 1990
运行时间 35.3 years
类型 other

技术详情

分类 Payload
质量 773.00 kg
干质量 773.00 kg
总质量 1487.00 kg
长度 6.90 m
直径 1.50 m
跨度 6.90 m
形状 Box + Pan
制造商 GEEW
平台类型 Block 5D
阶段状态 In Orbit
所有者/国家 AFSSD2/US

Most Searched